N5CSC Weather Reports


time (UTC)temp
F
wind
direction
speed
knots
gust
knots
rain 1hr
in
rain 24hr
in
rain mn
in
humidity
%
barometer
mb
20260901080006 80 173 0.0 0.0 0.00 0.00 0.00 72 1013.9
20260901074502 80 173 0.0 0.0 0.00 0.00 0.00 73 1013.7
20260901073001 81 173 0.0 0.0 0.00 0.00 0.00 72 1013.7
20260901071600 81 173 0.0 0.0 0.00 0.00 0.00 71 1013.8
20260901070104 81 173 0.0 0.0 0.00 0.00 0.00 71 1013.8
20260901064557 81 176 0.0 0.0 0.00 0.00 0.00 70 1013.8
20260901063056 82 181 0.0 1.7 0.00 0.00 0.00 68 1013.9
20260901061553 82 186 0.0 0.0 0.00 0.00 0.00 67 1013.8
20260901060050 82 151 0.0 0.0 0.00 0.00 0.00 65 1013.6
20260901054549 83 143 0.0 0.0 0.00 0.00 0.00 64 1013.4
20260901053105 83 136 0.0 0.0 0.00 0.00 0.00 62 1013.3
20260901051541 84 161 0.0 0.0 0.00 0.00 0.00 61 1013.3
20260901050039 84 138 0.0 1.7 0.00 0.00 0.00 60 1013.1
20260901044559 84 112 0.0 1.7 0.00 0.00 0.00 59 1013.0
20260901043040 85 176 0.0 3.5 0.00 0.00 0.00 58 1012.8
20260901041537 85 119 0.0 1.7 0.00 0.00 0.00 57 1013.0
20260901040037 86 155 0.9 6.1 0.00 0.00 0.00 56 1012.9
20260901034541 86 160 0.0 5.2 0.00 0.00 0.00 55 1012.8
20260901033138 87 155 0.0 8.7 0.00 0.00 0.00 53 1012.7
20260901031544 88 150 1.7 6.1 0.00 0.00 0.00 51 1012.5
20260901030034 88 135 0.0 5.2 0.00 0.00 0.00 50 1012.3
20260901024536 89 163 0.9 7.0 0.00 0.00 0.00 48 1012.0
20260901023039 90 121 0.0 6.1 0.00 0.00 0.00 47 1011.8
20260901021538 90 158 0.0 3.5 0.00 0.00 0.00 44 1011.7
20260901020054 91 148 0.0 3.5 0.00 0.00 0.00 43 1011.4
20260901014531 92 120 0.9 9.6 0.00 0.00 0.00 42 1011.1
20260901013030 92 108 3.5 8.7 0.00 0.00 0.00 41 1010.9
20260901011537 93 101 1.7 7.8 0.00 0.00 0.00 41 1010.7
20260901010028 94 107 3.5 7.8 0.00 0.00 0.00 39 1010.4
20260901004527 95 88 1.7 6.1 0.00 0.00 0.00 35 1010.4
20260901003030 96 107 0.0 2.6 0.00 0.00 0.00 33 1010.2
20260901001528 96 109 0.0 2.6 0.00 0.00 0.00 32 1010.1
20260901000026 96 111 0.0 3.5 0.00 0.00 0.00 31 1010.0
20260831234526 97 119 0.0 4.3 0.00 0.00 0.00 32 1009.9
20260831233038 97 108 0.0 2.6 0.00 0.00 0.00 30 1009.9
20260831231526 98 65 0.0 3.5 0.00 0.00 0.00 30 1009.9
20260831230024 98 112 0.0 3.5 0.00 0.00 0.00 30 1010.0
20260831224522 99 107 0.0 4.3 0.00 0.00 0.00 29 1010.1
20260831223121 99 105 0.0 6.1 0.00 0.00 0.00 30 1010.0
20260831221519 99 140 0.0 3.5 0.00 0.00 0.00 31 1010.2
20260831220022 99 173 0.0 1.7 0.00 0.00 0.00 31 1010.4
20260831214517 97 167 0.9 5.2 0.00 0.00 0.00 33 1010.7
20260831213026 97 123 0.0 1.7 0.00 0.00 0.00 34 1010.8
20260831211513 98 109 0.0 2.6 0.00 0.00 0.00 34 1011.0
20260831210013 98 154 0.0 3.5 0.00 0.00 0.00 34 1011.2
20260831204512 100 99 0.0 7.0 0.00 0.00 0.00 32 1011.4
20260831203005 99 207 0.0 1.7 0.00 0.00 0.00 35 1011.7
20260831201503 99 106 0.9 7.0 0.00 0.00 0.00 35 1012.1
20260831200101 99 107 0.9 6.1 0.00 0.00 0.00 36 1012.3
20260831194631 97 110 0.9 4.3 0.00 0.00 0.00 37 1012.6
20260831193054 98 105 0.0 7.0 0.00 0.00 0.00 39 1012.8
20260831191552 96 180 2.6 7.8 0.00 0.00 0.00 42 1013.1
20260831190151 96 86 0.0 7.0 0.00 0.00 0.00 43 1013.2
20260831184611 96 183 0.0 4.3 0.00 0.00 0.00 43 1013.4
20260831183058 94 166 0.0 6.1 0.00 0.00 0.00 45 1013.5
20260831181548 94 133 0.0 3.5 0.00 0.00 0.00 45 1013.7
20260831180044 95 175 2.6 9.6 0.00 0.00 0.00 47 1013.8
20260831174539 93 185 0.0 3.5 0.00 0.00 0.00 49 1014.2
20260831173051 92 117 0.9 6.1 0.00 0.00 0.00 49 1014.3
20260831171535 92 178 0.0 4.3 0.00 0.00 0.00 53 1014.3
20260831170033 92 106 0.0 6.1 0.00 0.00 0.00 53 1014.4
20260831164533 91 108 0.0 2.6 0.00 0.00 0.00 55 1014.5
20260831163026 90 115 0.0 5.2 0.00 0.00 0.00 59 1014.5
20260831161523 90 175 0.0 2.6 0.00 0.00 0.00 61 1014.5
20260831160027 88 182 2.6 7.0 0.00 0.00 0.00 64 1014.6
20260831154520 87 156 0.0 2.6 0.00 0.00 0.00 67 1014.5
20260831153015 86 166 0.0 1.7 0.00 0.00 0.00 69 1014.5
20260831151511 84 190 0.9 7.0 0.00 0.00 0.00 71 1014.5
20260831150013 83 175 0.0 2.6 0.00 0.00 0.00 75 1014.4
20260831144517 83 184 0.0 4.3 0.00 0.00 0.00 76 1014.4
20260831143005 82 134 0.0 0.9 0.00 0.00 0.00 78 1014.3
20260831141503 81 78 0.0 0.9 0.00 0.00 0.00 80 1014.4
20260831140001 80 59 0.0 0.0 0.00 0.00 0.00 80 1014.2
20260831134602 79 56 0.0 0.0 0.00 0.00 0.00 81 1014.1
20260831133057 79 58 0.0 0.0 0.00 0.00 0.00 81 1014.1
20260831131558 78 58 0.0 0.0 0.00 0.00 0.00 81 1014.1
20260831130059 77 58 0.0 0.0 0.00 0.00 0.00 81 1013.9
20260831124554 77 61 0.0 0.0 0.00 0.00 0.00 81 1014.0
20260831123053 77 77 0.0 0.0 0.00 0.00 0.00 81 1013.7
20260831121552 77 77 0.0 0.0 0.00 0.00 0.00 81 1013.6
20260831120052 76 103 0.0 0.0 0.00 0.00 0.00 81 1013.5
20260831114551 76 169 0.0 0.0 0.00 0.00 0.00 81 1013.5
20260831113052 76 169 0.0 0.0 0.00 0.00 0.00 81 1013.4
20260831111608 76 169 0.0 0.0 0.00 0.00 0.00 81 1013.3
20260831110126 76 169 0.0 0.0 0.00 0.00 0.00 80 1013.3
20260831104548 76 169 0.0 0.0 0.00 0.00 0.00 80 1013.2
20260831103054 76 169 0.0 0.0 0.00 0.00 0.00 80 1013.2
20260831101546 76 169 0.0 0.0 0.00 0.00 0.00 80 1013.4
20260831100048 77 169 0.0 0.0 0.00 0.00 0.00 79 1013.4
20260831094543 77 169 0.0 0.0 0.00 0.00 0.00 79 1013.3
20260831093041 77 169 0.0 0.0 0.00 0.00 0.00 79 1013.5
20260831091548 77 169 0.0 0.0 0.00 0.00 0.00 79 1013.4
20260831090039 77 169 0.0 0.0 0.00 0.00 0.00 78 1013.6
20260831084545 78 169 0.0 0.0 0.00 0.00 0.00 78 1013.6
20260831083045 78 169 0.0 0.0 0.00 0.00 0.00 77 1013.6
20260831081542 78 169 0.0 0.0 0.00 0.00 0.00 77 1013.6